Find Starlink 30348

NORAD ID: 57712 Int'l Des: 2023-129 Owner: SPXS Country: US Constellation: starlink operational
LEOCIRCULAR

当前视图

正在加载3D地球...

About Starlink 30348

Starlink 30348 (NORAD 57712) is a starlink constellation satellite (v2 mini) launched Aug 27, 2023 by SPXS of US. It operates in LEO, CIRCULAR orbit with a mass of 730.00 kg.

关于 Starlink 30348

正在加载描述...

即将过境

Passes for default location (London). Set your location on the main map for personalized predictions.

高度历史

Loading altitude history...

两行轨道根数

1 57712U 23129Q 26171.29518988 .00011462 00000-0 42525-3 0 9991
2 57712 43.0012 258.5427 0001680 277.0573 83.0087 15.27590010156371
Epoch: Jun 20, 2026 • Age: 44 hours

当前状态

高度 483.2 km
速度 7.63 km/s
星下点 25.42°N, 39.6°W
发射日期 Aug 27, 2023
运行时间 2.8 years
类型 internet

技术详情

分类 Payload
质量 730.00 kg
干质量 700.00 kg
总质量 730.00 kg
长度 0.30 m
直径 4.10 m
跨度 29.00 m
形状 Box + pan
制造商 SPXS
平台类型 Starlink V2M
阶段状态 In Orbit
所有者/国家 SPXS/US

Most Searched